Weather History for TXKF - March, 2013

Change the Weather History Date:

Tuesday, March 12, 2013

  Actual Average Record
Temperature  
Mean Temperature 64 °F -  
Max Temperature 67 °F 67 °F 73 °F (2014)
Min Temperature 60 °F 59 °F 55 °F (1998)
Degree Days  
Heating Degree Days 1    
Growing Degree Days 14 (Base 50)    
Moisture  
Dew Point 49 °F    
Average Humidity 57    
Maximum Humidity 68    
Minimum Humidity 47    
Precipitation  
Precipitation 0.00 in - - ()
Sea Level Pressure  
Sea Level Pressure 30.19 in    
Wind  
Wind Speed 9 mph ()    
Max Wind Speed 14 mph    
Max Gust Speed -    
Visibility 6.9 miles    
Events      
Averages and records for this station are not official NWS values.
T = Trace of Precipitation, MM = Missing Value Source: Averaged Metar Reports

Daily Weather History Graph

Daily Weather History Graph

Search for Another Location

Airport or City:

Trip Planner

Search our weather history database for the weather conditions in past years. The results will help you decide how hot, cold, wet, or windy it might be!

Date:

Astronomy

Mar. 12, 2013 Rise Set
Actual Time 7:32 AM ADT 7:24 PM ADT
Civil Twilight 7:08 AM ADT 7:49 PM ADT
Nautical Twilight 6:39 AM ADT 8:17 PM ADT
Astronomical Twilight 6:11 AM ADT 8:46 PM ADT
Moon 7:41 AM ADT (3/12) 8:28 PM ADT (3/12)
Length of Visible Light 12h 41m
Length of Day
11h 52m
New Moon, 1% of the Moon is Illuminated
Mar 12
New Moon
Mar 19
First Quarter
Mar 27
Full
Apr 3
Last Quarter
Apr 10
New

Hourly Weather History & Observations

Time (ADT) Temp. Dew Point Humidity Pressure Visibility Wind Dir Wind Speed Gust Speed Precip Events Conditions
12:00 AM 62 °F 54 °F 68% 30.18 in 9 mi NNE 11.5 mph - -   Partly Cloudy
12:55 AM 62.6 °F 51.8 °F 68% 30.15 in 6.2 mi NE 13.8 mph - N/A   Scattered Clouds
1:55 AM 62.6 °F 46.4 °F 55% 30.18 in 6.2 mi NNE 13.8 mph - N/A   Scattered Clouds
2:55 AM 62.6 °F 46.4 °F 55% 30.18 in 6.2 mi NE 11.5 mph - N/A   Scattered Clouds
3:00 AM 62 °F 47 °F 48% 30.18 in 9 mi NE 11.5 mph - -   Partly Cloudy
3:55 AM 62.6 °F 48.2 °F 59% 30.15 in 6.2 mi NNE 9.2 mph - N/A   Mostly Cloudy
4:55 AM 62.6 °F 51.8 °F 68% 30.15 in 6.2 mi NE 10.4 mph - N/A   Mostly Cloudy
5:55 AM 62.6 °F 51.8 °F 68% 30.15 in 6.2 mi NE 6.9 mph - N/A   Mostly Cloudy
6:00 AM 62 °F 51 °F 59% 30.18 in 9 mi NNE 5.8 mph - -   Mostly Cloudy
6:55 AM 62.6 °F 46.4 °F 55% 30.15 in 6.2 mi ENE 11.5 mph - N/A   Mostly Cloudy
7:55 AM 62.6 °F 46.4 °F 55% 30.18 in 6.2 mi ENE 5.8 mph - N/A   Mostly Cloudy
8:55 AM 62.6 °F 48.2 °F 59% 30.18 in 6.2 mi NE 8.1 mph - N/A   Mostly Cloudy
9:00 AM 63 °F 48 °F 48% 30.21 in 9 mi NE 8.1 mph - -   Mostly Cloudy
9:55 AM 64.4 °F 48.2 °F 56% 30.21 in 6.2 mi NNE 8.1 mph - N/A   Mostly Cloudy
10:55 AM 64.4 °F 46.4 °F 52% 30.21 in 6.2 mi NE 6.9 mph - N/A   Mostly Cloudy
11:55 AM 66.2 °F 50.0 °F 56% 30.21 in 6.2 mi NE 10.4 mph - N/A   Mostly Cloudy
12:00 PM 66 °F 50 °F 47% 30.23 in 9 mi NE 10.4 mph - -  
12:55 PM 66.2 °F 48.2 °F 52% 30.21 in 6.2 mi NE 8.1 mph - N/A   Overcast
1:55 PM 66.2 °F 50.0 °F 56% 30.21 in 6.2 mi North 6.9 mph - N/A   Overcast
2:55 PM 66.2 °F 50.0 °F 56% 30.21 in 6.2 mi NNE 6.9 mph - N/A   Overcast
3:00 PM 65 °F 50 °F 48% 30.21 in 9 mi NNE 6.9 mph - -   Overcast
3:55 PM 66.2 °F 53.6 °F 64% 30.18 in 6.2 mi NE 10.4 mph - N/A   Overcast
4:55 PM 66.2 °F 50.0 °F 56% 30.15 in 6.2 mi ENE 10.4 mph - N/A   Overcast
5:55 PM 64.4 °F 51.8 °F 64% 30.15 in 6.2 mi East 11.5 mph - N/A   Overcast
6:00 PM 65 °F 51 °F 52% 30.17 in 9 mi East 11.5 mph - -   Overcast
6:55 PM 64.4 °F 50.0 °F 59% 30.18 in 6.2 mi East 10.4 mph - N/A   Overcast
7:55 PM 64.4 °F 48.2 °F 56% 30.18 in 6.2 mi East 9.2 mph - N/A   Overcast
8:55 PM 62.6 °F 48.2 °F 59% 30.21 in 6.2 mi East 5.8 mph - N/A   Overcast
9:00 PM 63 °F 48 °F 48% 30.21 in 9 mi East 5.8 mph - -   Overcast
9:55 PM 62.6 °F 50.0 °F 63% 30.21 in 6.2 mi East 6.9 mph - N/A   Overcast
10:55 PM 62.6 °F 50.0 °F 63% 30.18 in 6.2 mi ESE 5.8 mph - N/A   Overcast
11:55 PM 60.8 °F 50.0 °F 68% 30.18 in 6.2 mi East 8.1 mph - N/A   Mostly Cloudy